This is the latest recevied weather packets stored in our database for station/object ZL1CTS-13. If no packets are shown the sender has not sent any weather packets the latest 10 day(s).
| Time | Temp. | Humidity | Pressure | Rain* | Wind** | Luminosity | Snow |
|---|---|---|---|---|---|---|---|
| 1788200104 | 10.56° C | 77% | 1001 hPa | 0 mm | - | - | - |
| 1788199804 | 10° C | 80% | 1001.1 hPa | 0 mm | - | - | - |
| 1788199504 | 10° C | 82% | 1001 hPa | 0 mm | - | - | - |
| 1788199205 | 10° C | 82% | 1001 hPa | 0 mm | - | - | - |
| 1788199204 | 10° C | 82% | 1001 hPa | 0 mm | - | - | - |
| 1788198904 | 10° C | 81% | 1000.9 hPa | 0 mm | - | - | - |
| 1788198604 | 10° C | 81% | 1000.8 hPa | 0 mm | - | - | - |
| 1788198307 | 10.56° C | 81% | 1000.8 hPa | 0 mm | - | - | - |
| 1788198305 | 10.56° C | 81% | 1000.9 hPa | 0 mm | - | - | - |
| 1788198004 | 10.56° C | 81% | 1000.7 hPa | 0 mm | - | - | - |
| 1788197706 | 10.56° C | 80% | 1000.8 hPa | 0 mm | - | - | - |
| 1788197405 | 10.56° C | 78% | 1001 hPa | 0 mm | - | - | - |
| 1788197404 | 10.56° C | 78% | 1001 hPa | 0 mm | - | - | - |
| 1788197103 | 10.56° C | 77% | 1000.9 hPa | 0 mm | - | - | - |
| 1788196804 | 10.56° C | 76% | 1000.7 hPa | 0 mm | - | - | - |
| 1788196507 | 10.56° C | 75% | 1000.8 hPa | 0 mm | - | - | - |
| 1788196505 | 10.56° C | 75% | 1000.9 hPa | 0 mm | - | - | - |
| 1788196203 | 10.56° C | 74% | 1000.9 hPa | 0 mm | - | - | - |
| 1788195906 | 10.56° C | 73% | 1001 hPa | 0 mm | - | - | - |
| 1788195604 | 11.11° C | 73% | 1001 hPa | 0 mm | - | - | - |
| 1788195604 | 11.11° C | 73% | 1001 hPa | 0 mm | - | - | - |
| 1788195321 | 10.56° C | 72% | 1000.8 hPa | 0 mm | - | - | - |
| 1788195004 | 10.56° C | 71% | 1000.9 hPa | 0 mm | - | - | - |
| 1788194706 | 10.56° C | 72% | 1000.6 hPa | 0 mm | - | - | - |
| 1788194705 | 10.56° C | 72% | 1000.6 hPa | 0 mm | - | - | - |
* Rain latest hour (hover to see other rain measurements)
** Current wind speed in m/s (hover to see current wind gust speed)